Location: Newark
(17.9939°S, 31.0481°E)
Time: 12:45:34
(UTC+00:00)

Courier 1B - Pass Details

Date: 12 November 2019
Orbit: 963 x 1209 km, 28.3° (Epoch: 05 December)

Event Time Altitude Azimuth Distance (km) Brightness Sun altitude
Rises 20:15:50 0° 254° (WSW) 4,113 11.2 -48.7°
Reaches altitude 10° 20:18:57 10° 246° (WSW) 3,153 10.5 -49.0°
Enters shadow 20:21:19 20° 236° (SW) 2,495 9.9 -49.3°
